| time (UTC) | temp C | wind direction | speed KPH | gust KPH | rain 1hr cm | rain 24hr cm | rain mn cm | humidity % | barometer mb |
| 20260509084804 | 13 | 145 | 1.6 | 0.0 | 0.00 | 0.48 | 0.00 | 96 | 1008.6 |
| 20260509084304 | 13 | 157 | 1.6 | 4.8 | 0.00 | 0.48 | 0.00 | 96 | 1008.6 |
| 20260509083803 | 13 | 123 | 1.6 | 3.2 | 0.00 | 0.48 | 0.00 | 96 | 1008.6 |
| 20260509082804 | 13 | 145 | 1.6 | 0.0 | 0.00 | 0.48 | 0.00 | 96 | 1008.7 |
| 20260509081803 | 13 | 145 | 3.2 | 0.0 | 0.00 | 0.48 | 0.00 | 96 | 1008.7 |
| 20260509081304 | 13 | 145 | 4.8 | 8.0 | 0.00 | 0.48 | 0.00 | 96 | 1008.7 |
| 20260509080804 | 13 | 145 | 4.8 | 8.0 | 0.00 | 0.48 | 0.00 | 96 | 1008.5 |
| 20260509080303 | 13 | 145 | 3.2 | 8.0 | 0.00 | 0.48 | 0.00 | 96 | 1008.5 |
| 20260509075306 | 13 | 138 | 1.6 | 9.7 | 0.00 | 0.48 | 0.00 | 96 | 1008.5 |
| 20260509074804 | 13 | 145 | 1.6 | 9.7 | 0.00 | 0.48 | 0.00 | 96 | 1008.5 |
| 20260509074303 | 13 | 167 | 1.6 | 4.8 | 0.00 | 0.48 | 0.00 | 96 | 1008.5 |
| 20260509073804 | 13 | 145 | 1.6 | 8.0 | 0.00 | 0.48 | 0.00 | 96 | 1008.5 |
| 20260509073304 | 13 | 145 | 0.0 | 8.0 | 0.00 | 0.48 | 0.00 | 96 | 1008.5 |
| 20260509072804 | 13 | 145 | 0.0 | 0.0 | 0.00 | 0.48 | 0.00 | 96 | 1008.7 |
| 20260509072306 | 13 | 145 | 0.0 | 0.0 | 0.00 | 0.48 | 0.00 | 95 | 1008.7 |
| 20260509071804 | 13 | 280 | 0.0 | 0.0 | 0.00 | 0.48 | 0.00 | 95 | 1008.7 |
| 20260509071304 | 13 | 145 | 0.0 | 0.0 | 0.00 | 0.48 | 0.00 | 95 | 1008.7 |
| 20260509070803 | 13 | 145 | 0.0 | 0.0 | 0.00 | 0.48 | 0.00 | 95 | 1008.7 |
| 20260509070304 | 13 | 135 | 0.0 | 0.0 | 0.00 | 0.48 | 0.00 | 95 | 1008.7 |
| 20260509065804 | 13 | 123 | 0.0 | 0.0 | 0.00 | 0.48 | 0.00 | 94 | 1008.7 |
| 20260509065306 | 13 | 123 | 0.0 | 0.0 | 0.00 | 0.48 | 0.00 | 94 | 1008.7 |
| 20260509064804 | 13 | 123 | 0.0 | 0.0 | 0.00 | 0.48 | 0.00 | 94 | 1008.5 |
| 20260509064304 | 13 | 123 | 0.0 | 0.0 | 0.00 | 0.48 | 0.00 | 94 | 1008.5 |
| 20260509063804 | 13 | 123 | 0.0 | 0.0 | 0.00 | 0.48 | 0.00 | 94 | 1008.5 |
| 20260509063304 | 13 | 123 | 0.0 | 0.0 | 0.00 | 0.48 | 0.00 | 94 | 1008.5 |
| 20260509062804 | 14 | 123 | 0.0 | 0.0 | 0.00 | 0.48 | 0.00 | 94 | 1008.3 |
| 20260509062306 | 14 | 123 | 0.0 | 0.0 | 0.00 | 0.48 | 0.00 | 94 | 1008.3 |
| 20260509061804 | 14 | 190 | 0.0 | 0.0 | 0.00 | 0.48 | 0.00 | 94 | 1008.3 |
| 20260509061304 | 14 | 190 | 0.0 | 0.0 | 0.00 | 0.48 | 0.00 | 94 | 1008.3 |
| 20260509060804 | 14 | 190 | 0.0 | 0.0 | 0.00 | 0.48 | 0.00 | 94 | 1008.8 |
| 20260509060304 | 14 | 235 | 0.0 | 0.0 | 0.00 | 0.48 | 0.00 | 94 | 1008.8 |
| 20260509055804 | 14 | 190 | 0.0 | 0.0 | 0.00 | 0.48 | 0.00 | 94 | 1008.8 |
| 20260509055306 | 14 | 167 | 0.0 | 0.0 | 0.00 | 0.48 | 0.00 | 94 | 1008.8 |
| 20260509054802 | 14 | 167 | 0.0 | 0.0 | 0.00 | 0.48 | 0.00 | 94 | 1008.6 |
| 20260509053302 | 14 | 143 | 0.0 | 0.0 | 0.00 | 0.48 | 0.00 | 94 | 1008.6 |
| 20260509052802 | 14 | 190 | 0.0 | 0.0 | 0.00 | 0.48 | 0.00 | 94 | 1008.4 |
| 20260509052306 | 14 | 118 | 0.0 | 0.0 | 0.00 | 0.48 | 0.00 | 94 | 1008.4 |
| 20260509051802 | 14 | 145 | 0.0 | 0.0 | 0.00 | 0.48 | 0.00 | 94 | 1008.4 |
| 20260509051302 | 14 | 106 | 0.0 | 0.0 | 0.00 | 0.48 | 0.00 | 94 | 1008.4 |
| 20260509050820 | 14 | 145 | 0.0 | 0.0 | 0.00 | 0.48 | 0.00 | 93 | 1008.9 |
| 20260509050302 | 15 | 182 | 0.0 | 0.0 | 0.00 | 0.48 | 0.00 | 93 | 1008.9 |
| 20260509045802 | 15 | 145 | 0.0 | 0.0 | 0.00 | 0.48 | 0.48 | 94 | 1008.9 |
| 20260509045306 | 15 | 125 | 0.0 | 8.0 | 0.00 | 0.48 | 0.48 | 94 | 1008.9 |
| 20260509044803 | 15 | 145 | 0.0 | 0.0 | 0.00 | 0.48 | 0.48 | 93 | 1008.9 |
| 20260509044302 | 15 | 145 | 0.0 | 3.2 | 0.00 | 0.48 | 0.48 | 93 | 1008.9 |
| 20260509043802 | 15 | 213 | 0.0 | 3.2 | 0.00 | 0.48 | 0.48 | 94 | 1008.9 |
| 20260509043302 | 15 | 135 | 0.0 | 0.0 | 0.08 | 0.48 | 0.48 | 94 | 1008.9 |
| 20260509042802 | 15 | 167 | 0.0 | 4.8 | 0.08 | 0.48 | 0.48 | 93 | 1009.5 |
| 20260509042306 | 15 | 77 | 0.0 | 0.0 | 0.15 | 0.48 | 0.48 | 93 | 1009.5 |
| 20260509041803 | 15 | 33 | 0.0 | 0.0 | 0.25 | 0.48 | 0.48 | 93 | 1009.5 |
| 20260509041302 | 15 | 282 | 0.0 | 0.0 | 0.25 | 0.48 | 0.48 | 92 | 1009.5 |
| 20260509040803 | 15 | 145 | 0.0 | 3.2 | 0.25 | 0.48 | 0.48 | 92 | 1009.7 |
| 20260509040302 | 15 | 167 | 0.0 | 3.2 | 0.25 | 0.48 | 0.48 | 92 | 1009.7 |
| 20260509035802 | 15 | 145 | 0.0 | 3.2 | 0.25 | 0.48 | 0.48 | 92 | 1009.7 |
| 20260509035305 | 15 | 350 | 0.0 | 0.0 | 0.33 | 0.48 | 0.48 | 90 | 1009.7 |
| 20260509034803 | 15 | 145 | 0.0 | 0.0 | 0.41 | 0.48 | 0.48 | 90 | 1009.9 |
| 20260509034303 | 15 | 123 | 0.0 | 0.0 | 0.48 | 0.48 | 0.48 | 90 | 1009.9 |
| 20260509033803 | 15 | 145 | 0.0 | 0.0 | 0.48 | 0.48 | 0.48 | 90 | 1009.9 |
| 20260509033302 | 15 | 167 | 0.0 | 4.8 | 0.41 | 0.41 | 0.41 | 90 | 1009.9 |
| 20260509032306 | 15 | 169 | 0.0 | 0.0 | 0.33 | 0.33 | 0.33 | 89 | 1010.3 |
| 20260509031803 | 15 | 123 | 0.0 | 0.0 | 0.25 | 0.25 | 0.25 | 89 | 1010.3 |
| 20260509030802 | 15 | 123 | 0.0 | 0.0 | 0.25 | 0.25 | 0.25 | 88 | 1010.4 |
| 20260509030302 | 15 | 182 | 0.0 | 0.0 | 0.25 | 0.25 | 0.25 | 88 | 1010.4 |
| 20260509025802 | 15 | 145 | 0.0 | 0.0 | 0.25 | 0.25 | 0.25 | 87 | 1010.4 |
| 20260509025306 | 15 | 145 | 0.0 | 4.8 | 0.15 | 0.15 | 0.15 | 85 | 1010.4 |
| 20260509024802 | 15 | 303 | 0.0 | 0.0 | 0.08 | 0.08 | 0.08 | 83 | 1009.9 |
| 20260509024302 | 16 | 303 | 0.0 | 0.0 | 0.00 | 0.00 | 0.00 | 83 | 1009.9 |
| 20260509023803 | 16 | 167 | 0.0 | 3.2 | 0.00 | 0.00 | 0.00 | 82 | 1009.9 |
| 20260509022802 | 16 | 167 | 0.0 | 0.0 | 0.00 | 0.00 | 0.00 | 80 | 1009.7 |
| 20260509022306 | 16 | 160 | 0.0 | 3.2 | 0.00 | 0.00 | 0.00 | 80 | 1009.7 |
| 20260509021802 | 16 | 280 | 0.0 | 0.0 | 0.00 | 0.00 | 0.00 | 79 | 1009.7 |
| 20260509021302 | 16 | 123 | 0.0 | 0.0 | 0.00 | 0.00 | 0.00 | 78 | 1009.7 |
| 20260509020802 | 16 | 145 | 0.0 | 0.0 | 0.00 | 0.00 | 0.00 | 78 | 1008.6 |
| 20260509020302 | 16 | 156 | 0.0 | 0.0 | 0.00 | 0.00 | 0.00 | 77 | 1008.6 |
| 20260509014802 | 16 | 280 | 0.0 | 4.8 | 0.00 | 0.00 | 0.00 | 76 | 1008.5 |
| 20260509014302 | 16 | 324 | 0.0 | 0.0 | 0.00 | 0.00 | 0.00 | 76 | 1008.5 |
| 20260509013803 | 16 | 303 | 0.0 | 0.0 | 0.00 | 0.00 | 0.00 | 76 | 1008.5 |
| 20260509013302 | 16 | 303 | 0.0 | 0.0 | 0.00 | 0.00 | 0.00 | 76 | 1008.5 |
| 20260509012803 | 16 | 303 | 0.0 | 0.0 | 0.00 | 0.00 | 0.00 | 75 | 1008.5 |
| 20260509012302 | 16 | 82 | 0.0 | 4.8 | 0.00 | 0.00 | 0.00 | 75 | 1008.5 |
| 20260509011803 | 16 | 347 | 0.0 | 4.8 | 0.00 | 0.00 | 0.00 | 73 | 1008.5 |
| 20260509011302 | 17 | 278 | 1.6 | 3.2 | 0.00 | 0.00 | 0.00 | 73 | 1008.5 |
| 20260509010802 | 17 | 303 | 1.6 | 4.8 | 0.00 | 0.00 | 0.00 | 70 | 1008.2 |
| 20260509010303 | 17 | 227 | 3.2 | 11.3 | 0.00 | 0.00 | 0.00 | 68 | 1008.2 |
| 20260509005306 | 18 | 323 | 1.6 | 8.0 | 0.00 | 0.00 | 0.00 | 66 | 1008.2 |
| 20260509004303 | 18 | 303 | 4.8 | 11.3 | 0.00 | 0.00 | 0.00 | 63 | 1008.1 |
| 20260509003803 | 19 | 33 | 8.0 | 12.9 | 0.00 | 0.00 | 0.00 | 60 | 1008.1 |
| 20260509003302 | 19 | 325 | 8.0 | 12.9 | 0.00 | 0.00 | 0.00 | 59 | 1008.1 |
| 20260509002802 | 20 | 10 | 8.0 | 12.9 | 0.00 | 0.00 | 0.00 | 56 | 1007.9 |
| 20260509002305 | 20 | 50 | 8.0 | 16.1 | 0.00 | 0.00 | 0.00 | 55 | 1007.9 |
| 20260509001803 | 20 | 303 | 3.2 | 14.5 | 0.00 | 0.00 | 0.00 | 54 | 1007.9 |
| 20260509001303 | 20 | 347 | 3.2 | 14.5 | 0.00 | 0.00 | 0.00 | 53 | 1007.9 |
| 20260509000803 | 21 | 347 | 3.2 | 8.0 | 0.00 | 0.00 | 0.00 | 53 | 1007.7 |
| 20260508235803 | 21 | 257 | 4.8 | 12.9 | 0.00 | 0.00 | 0.00 | 52 | 1007.7 |
| 20260508235306 | 21 | 332 | 3.2 | 12.9 | 0.00 | 0.00 | 0.00 | 52 | 1007.7 |
| 20260508234802 | 21 | 347 | 3.2 | 4.8 | 0.00 | 0.00 | 0.00 | 49 | 1008.0 |
| 20260508234302 | 21 | 283 | 4.8 | 9.7 | 0.00 | 0.00 | 0.00 | 49 | 1008.0 |
| 20260508233802 | 22 | 257 | 4.8 | 9.7 | 0.00 | 0.00 | 0.00 | 48 | 1008.0 |
| 20260508233303 | 22 | 351 | 4.8 | 9.7 | 0.00 | 0.00 | 0.00 | 47 | 1008.0 |
| 20260508232803 | 22 | 303 | 3.2 | 11.3 | 0.00 | 0.00 | 0.00 | 47 | 1007.8 |
| 20260508232306 | 22 | 319 | 3.2 | 11.3 | 0.00 | 0.00 | 0.00 | 46 | 1007.8 |
| 20260508231802 | 22 | 145 | 3.2 | 8.0 | 0.00 | 0.00 | 0.00 | 45 | 1007.8 |
| 20260508231303 | 22 | 359 | 3.2 | 12.9 | 0.00 | 0.00 | 0.00 | 44 | 1007.8 |
| 20260508230803 | 22 | 347 | 3.2 | 12.9 | 0.00 | 0.00 | 0.00 | 43 | 1007.5 |
| 20260508230302 | 23 | 247 | 4.8 | 12.9 | 0.00 | 0.00 | 0.00 | 42 | 1007.5 |
| 20260508225802 | 23 | 347 | 4.8 | 8.0 | 0.00 | 0.00 | 0.00 | 41 | 1007.5 |
| 20260508225306 | 24 | 18 | 3.2 | 9.7 | 0.00 | 0.00 | 0.00 | 40 | 1007.5 |
| 20260508224802 | 24 | 55 | 3.2 | 14.5 | 0.00 | 0.00 | 0.00 | 39 | 1007.7 |
| 20260508223802 | 24 | 280 | 3.2 | 8.0 | 0.00 | 0.00 | 0.00 | 39 | 1007.7 |
| 20260508222802 | 25 | 190 | 4.8 | 8.0 | 0.00 | 0.00 | 0.00 | 38 | 1007.3 |
| 20260508221303 | 27 | 145 | 8.0 | 20.9 | 0.00 | 0.00 | 0.00 | 36 | 1007.3 |
| 20260508220803 | 26 | 123 | 9.7 | 14.5 | 0.00 | 0.00 | 0.00 | 36 | 1007.5 |
| 20260508215803 | 25 | 33 | 8.0 | 12.9 | 0.00 | 0.00 | 0.00 | 37 | 1007.5 |
| 20260508215306 | 26 | 69 | 8.0 | 16.1 | 0.00 | 0.00 | 0.00 | 36 | 1007.5 |
| 20260508214803 | 27 | 123 | 8.0 | 35.4 | 0.00 | 0.00 | 0.00 | 35 | 1007.7 |
| 20260508214303 | 27 | 86 | 8.0 | 24.1 | 0.00 | 0.00 | 0.00 | 36 | 1007.7 |
| 20260508213802 | 27 | 347 | 8.0 | 4.8 | 0.00 | 0.00 | 0.00 | 35 | 1007.7 |
| 20260508213303 | 26 | 275 | 8.0 | 20.9 | 0.00 | 0.00 | 0.00 | 36 | 1007.7 |
| 20260508212803 | 26 | 347 | 8.0 | 12.9 | 0.00 | 0.00 | 0.00 | 37 | 1008.4 |
| 20260508212306 | 25 | 190 | 8.0 | 16.1 | 0.00 | 0.00 | 0.00 | 39 | 1008.4 |
| 20260508211803 | 25 | 325 | 4.8 | 12.9 | 0.00 | 0.00 | 0.00 | 39 | 1008.4 |
| 20260508211303 | 24 | 43 | 8.0 | 20.9 | 0.00 | 0.00 | 0.00 | 39 | 1008.4 |
| 20260508210803 | 24 | 347 | 8.0 | 9.7 | 0.00 | 0.00 | 0.00 | 37 | 1008.0 |
| 20260508210302 | 25 | 261 | 11.3 | 22.5 | 0.00 | 0.00 | 0.00 | 37 | 1008.0 |
| 20260508205803 | 25 | 167 | 11.3 | 22.5 | 0.00 | 0.00 | 0.00 | 36 | 1008.0 |
| 20260508205306 | 26 | 303 | 9.7 | 19.3 | 0.00 | 0.00 | 0.00 | 37 | 1008.0 |
| 20260508204803 | 26 | 325 | 8.0 | 24.1 | 0.00 | 0.00 | 0.00 | 39 | 1008.4 |
| 20260508204302 | 26 | 145 | 8.0 | 24.1 | 0.00 | 0.00 | 0.00 | 38 | 1008.4 |
| 20260508203303 | 26 | 138 | 9.7 | 33.8 | 0.00 | 0.00 | 0.00 | 39 | 1008.4 |
| 20260508202803 | 26 | 190 | 8.0 | 8.0 | 0.00 | 0.00 | 0.00 | 41 | 1008.8 |
| 20260508202306 | 25 | 135 | 9.7 | 20.9 | 0.00 | 0.00 | 0.00 | 40 | 1008.8 |
| 20260508201802 | 25 | 145 | 8.0 | 12.9 | 0.00 | 0.00 | 0.00 | 41 | 1008.8 |
| 20260508201303 | 26 | 347 | 4.8 | 12.9 | 0.00 | 0.00 | 0.00 | 40 | 1008.8 |
| 20260508200802 | 25 | 213 | 9.7 | 11.3 | 0.00 | 0.00 | 0.00 | 41 | 1008.9 |
| 20260508195802 | 25 | 145 | 8.0 | 24.1 | 0.00 | 0.00 | 0.00 | 40 | 1008.9 |
| 20260508195305 | 25 | 221 | 9.7 | 19.3 | 0.00 | 0.00 | 0.00 | 42 | 1008.9 |
| 20260508194803 | 26 | 347 | 9.7 | 22.5 | 0.00 | 0.00 | 0.00 | 40 | 1009.0 |
| 20260508194303 | 26 | 100 | 8.0 | 12.9 | 0.00 | 0.00 | 0.00 | 41 | 1009.0 |
| 20260508193803 | 26 | 167 | 9.7 | 12.9 | 0.00 | 0.00 | 0.00 | 43 | 1009.0 |
| 20260508193303 | 25 | 199 | 9.7 | 20.9 | 0.00 | 0.00 | 0.00 | 42 | 1009.0 |
| 20260508192803 | 25 | 145 | 8.0 | 19.3 | 0.00 | 0.00 | 0.00 | 43 | 1009.3 |
| 20260508192306 | 23 | 133 | 8.0 | 19.3 | 0.00 | 0.00 | 0.00 | 45 | 1009.3 |
| 20260508191803 | 23 | 190 | 8.0 | 19.3 | 0.00 | 0.00 | 0.00 | 47 | 1009.3 |
| 20260508191303 | 22 | 176 | 8.0 | 19.3 | 0.00 | 0.00 | 0.00 | 48 | 1009.3 |
| 20260508190802 | 22 | 235 | 8.0 | 19.3 | 0.00 | 0.00 | 0.00 | 48 | 1009.4 |
| 20260508185802 | 22 | 213 | 8.0 | 19.3 | 0.00 | 0.00 | 0.00 | 50 | 1009.4 |
| 20260508185306 | 22 | 144 | 8.0 | 16.1 | 0.00 | 0.00 | 0.00 | 51 | 1009.4 |
| 20260508184803 | 22 | 145 | 8.0 | 14.5 | 0.00 | 0.00 | 0.00 | 50 | 1009.7 |
| 20260508184303 | 22 | 145 | 8.0 | 14.5 | 0.00 | 0.00 | 0.00 | 51 | 1009.7 |
| 20260508183803 | 22 | 167 | 9.7 | 8.0 | 0.00 | 0.00 | 0.00 | 51 | 1009.7 |
| 20260508183302 | 22 | 157 | 8.0 | 16.1 | 0.00 | 0.00 | 0.00 | 52 | 1009.7 |
| 20260508182803 | 22 | 190 | 4.8 | 14.5 | 0.00 | 0.00 | 0.00 | 51 | 1010.2 |
| 20260508181803 | 21 | 167 | 4.8 | 8.0 | 0.00 | 0.00 | 0.00 | 52 | 1010.2 |
| 20260508181303 | 21 | 142 | 4.8 | 16.1 | 0.00 | 0.00 | 0.00 | 52 | 1010.2 |
| 20260508180303 | 21 | 151 | 8.0 | 20.9 | 0.00 | 0.00 | 0.00 | 53 | 1010.1 |
| 20260508175803 | 21 | 303 | 8.0 | 20.9 | 0.00 | 0.00 | 0.00 | 52 | 1010.1 |
| 20260508175305 | 21 | 173 | 4.8 | 14.5 | 0.00 | 0.00 | 0.00 | 53 | 1010.1 |
| 20260508174803 | 21 | 167 | 3.2 | 9.7 | 0.00 | 0.00 | 0.00 | 54 | 1010.9 |
| 20260508174302 | 21 | 96 | 6.4 | 12.9 | 0.00 | 0.00 | 0.00 | 54 | 1010.9 |
| 20260508173803 | 20 | 145 | 6.4 | 9.7 | 0.00 | 0.00 | 0.00 | 54 | 1010.9 |
| 20260508173303 | 20 | 167 | 3.2 | 9.7 | 0.00 | 0.00 | 0.00 | 55 | 1010.9 |
| 20260508172803 | 20 | 145 | 3.2 | 9.7 | 0.00 | 0.00 | 0.00 | 55 | 1011.2 |
| 20260508172306 | 20 | 145 | 4.8 | 9.7 | 0.00 | 0.00 | 0.00 | 56 | 1011.2 |
| 20260508171803 | 19 | 123 | 6.4 | 12.9 | 0.00 | 0.00 | 0.00 | 56 | 1011.2 |
| 20260508171303 | 19 | 145 | 3.2 | 12.9 | 0.00 | 0.00 | 0.00 | 56 | 1011.2 |
| 20260508170803 | 19 | 167 | 1.6 | 11.3 | 0.00 | 0.00 | 0.00 | 58 | 1011.4 |
| 20260508170303 | 19 | 155 | 3.2 | 9.7 | 0.00 | 0.00 | 0.00 | 58 | 1011.4 |
| 20260508165802 | 19 | 190 | 1.6 | 9.7 | 0.00 | 0.00 | 0.00 | 58 | 1011.4 |
| 20260508164802 | 19 | 167 | 0.0 | 3.2 | 0.00 | 0.00 | 0.00 | 59 | 1011.9 |
| 20260508163803 | 18 | 303 | 0.0 | 4.8 | 0.00 | 0.00 | 0.00 | 59 | 1011.9 |
| 20260508163303 | 17 | 164 | 1.6 | 4.8 | 0.00 | 0.00 | 0.00 | 59 | 1011.9 |
| 20260508162803 | 17 | 145 | 1.6 | 4.8 | 0.00 | 0.00 | 0.00 | 59 | 1011.9 |
| 20260508162306 | 17 | 145 | 1.6 | 9.7 | 0.00 | 0.00 | 0.00 | 59 | 1011.9 |
| 20260508161802 | 17 | 145 | 1.6 | 8.0 | 0.00 | 0.00 | 0.00 | 59 | 1011.9 |
| 20260508161303 | 17 | 167 | 3.2 | 8.0 | 0.00 | 0.00 | 0.00 | 59 | 1011.9 |
| 20260508160803 | 17 | 145 | 3.2 | 8.0 | 0.00 | 0.00 | 0.00 | 59 | 1012.4 |
| 20260508160302 | 17 | 204 | 3.2 | 8.0 | 0.00 | 0.00 | 0.00 | 58 | 1012.4 |
| 20260508155803 | 17 | 145 | 3.2 | 4.8 | 0.00 | 0.00 | 0.00 | 58 | 1012.4 |
| 20260508154803 | 17 | 100 | 4.8 | 12.9 | 0.00 | 0.00 | 0.00 | 58 | 1012.0 |
| 20260508154303 | 17 | 176 | 4.8 | 8.0 | 0.00 | 0.00 | 0.00 | 57 | 1012.0 |
| 20260508153802 | 17 | 100 | 4.8 | 11.3 | 0.00 | 0.00 | 0.00 | 58 | 1012.0 |
| 20260508153302 | 17 | 145 | 4.8 | 9.7 | 0.00 | 0.00 | 0.00 | 57 | 1012.0 |
| 20260508152802 | 17 | 145 | 3.2 | 8.0 | 0.00 | 0.00 | 0.00 | 57 | 1012.3 |
| 20260508152305 | 17 | 192 | 3.2 | 4.8 | 0.00 | 0.00 | 0.00 | 57 | 1012.3 |
| 20260508151803 | 17 | 213 | 3.2 | 8.0 | 0.00 | 0.00 | 0.00 | 57 | 1012.3 |
| 20260508151303 | 17 | 244 | 3.2 | 8.0 | 0.00 | 0.00 | 0.00 | 57 | 1012.3 |
| 20260508150802 | 17 | 145 | 3.2 | 8.0 | 0.00 | 0.00 | 0.00 | 57 | 1012.7 |
| 20260508145803 | 17 | 145 | 8.0 | 12.9 | 0.00 | 0.00 | 0.00 | 56 | 1012.7 |
| 20260508144803 | 18 | 167 | 9.7 | 22.5 | 0.00 | 0.00 | 0.00 | 56 | 1012.9 |
| 20260508144302 | 18 | 145 | 11.3 | 22.5 | 0.00 | 0.00 | 0.00 | 56 | 1012.9 |
| 20260508143803 | 18 | 145 | 11.3 | 19.3 | 0.00 | 0.00 | 0.00 | 56 | 1012.9 |
| 20260508143303 | 18 | 133 | 8.0 | 22.5 | 0.00 | 0.00 | 0.00 | 57 | 1012.9 |
| 20260508142803 | 18 | 190 | 4.8 | 22.5 | 0.00 | 0.00 | 0.00 | 58 | 1012.9 |
| 20260508141803 | 17 | 190 | 3.2 | 8.0 | 0.00 | 0.00 | 0.00 | 62 | 1012.9 |
| 20260508141303 | 17 | 192 | 4.8 | 9.7 | 0.00 | 0.00 | 0.00 | 63 | 1012.9 |
| 20260508140803 | 16 | 190 | 4.8 | 8.0 | 0.00 | 0.00 | 0.00 | 64 | 1012.7 |
| 20260508140303 | 16 | 253 | 3.2 | 8.0 | 0.00 | 0.00 | 0.00 | 65 | 1012.7 |
| 20260508135803 | 16 | 145 | 3.2 | 12.9 | 0.00 | 0.00 | 0.00 | 65 | 1012.7 |
| 20260508135306 | 16 | 132 | 3.2 | 14.5 | 0.00 | 0.00 | 0.00 | 66 | 1012.7 |
| 20260508134803 | 15 | 190 | 3.2 | 14.5 | 0.00 | 0.00 | 0.00 | 66 | 1012.6 |
| 20260508133803 | 15 | 190 | 1.6 | 9.7 | 0.00 | 0.00 | 0.00 | 69 | 1012.6 |
| 20260508133303 | 15 | 205 | 0.0 | 9.7 | 0.00 | 0.00 | 0.00 | 69 | 1012.6 |
| 20260508132803 | 14 | 190 | 0.0 | 0.0 | 0.00 | 0.00 | 0.00 | 70 | 1012.6 |
| 20260508132306 | 14 | 229 | 1.6 | 8.0 | 0.00 | 0.00 | 0.00 | 70 | 1012.6 |
| 20260508131803 | 14 | 123 | 1.6 | 3.2 | 0.00 | 0.00 | 0.00 | 71 | 1012.6 |
| 20260508131303 | 14 | 222 | 1.6 | 8.0 | 0.00 | 0.00 | 0.00 | 70 | 1012.6 |
| 20260508124803 | 12 | 303 | 0.0 | 0.0 | 0.00 | 0.00 | 0.00 | 71 | 1012.8 |
| 20260508123803 | 12 | 190 | 0.0 | 0.0 | 0.00 | 0.00 | 0.00 | 72 | 1012.8 |
| 20260508123303 | 12 | 176 | 0.0 | 0.0 | 0.00 | 0.00 | 0.00 | 72 | 1012.8 |
| 20260508122803 | 12 | 347 | 0.0 | 0.0 | 0.00 | 0.00 | 0.00 | 72 | 1012.7 |
| 20260508121803 | 12 | 347 | 0.0 | 0.0 | 0.00 | 0.00 | 0.00 | 73 | 1012.7 |
| 20260508121303 | 12 | 206 | 0.0 | 0.0 | 0.00 | 0.00 | 0.00 | 73 | 1012.7 |
| 20260508115306 | 11 | 96 | 0.0 | 0.0 | 0.00 | 0.00 | 0.00 | 73 | 1013.0 |
| 20260508114804 | 11 | 280 | 1.6 | 0.0 | 0.00 | 0.00 | 0.00 | 65 | 1012.8 |